Meteo pe oră la Dziedzice

Astăzi, 3 Martie, Miercuri

Timp Temperatura Precipitaţii Vânt Presiune Umiditate
00:00 +6°C° 0 mm 1 m/s 757 mmHg 78%
01:00 +5°C° 0 mm 0 m/s 757 mmHg 79%
02:00 +5°C° 0 mm 0 m/s 757 mmHg 79%
03:00 +5°C° 0 mm 1 m/s 756 mmHg 78%
04:00 +5°C° 0 mm 1 m/s 756 mmHg 78%
05:00 +5°C° 0 mm 1 m/s 756 mmHg 76%
06:00 +5°C° 0 mm 1 m/s 756 mmHg 75%
07:00 +5°C° 0 mm 1 m/s 756 mmHg 73%
08:00 +7°C° 0 mm 1 m/s 755 mmHg 66%
09:00 +9°C° 0 mm 1 m/s 755 mmHg 59%
10:00 +11°C° 0 mm 1 m/s 755 mmHg 52%
11:00 +12°C° 0 mm 1 m/s 755 mmHg 48%
12:00 +14°C° 0 mm 1 m/s 754 mmHg 44%
13:00 +15°C° 0 mm 1 m/s 754 mmHg 40%
14:00 +15°C° 0 mm 1 m/s 753 mmHg 42%
15:00 +15°C° 0 mm 1 m/s 752 mmHg 45%
16:00 +15°C° 0 mm 1 m/s 752 mmHg 47%
17:00 +13°C° 0 mm 2 m/s 751 mmHg 53%
18:00 +10°C° 0 mm 2 m/s 751 mmHg 59%
19:00 +8°C° 0 mm 3 m/s 751 mmHg 65%
20:00 +8°C° 0 mm 3 m/s 751 mmHg 68%
21:00 +7°C° 0 mm 2 m/s 750 mmHg 71%
22:00 +6°C° 0 mm 2 m/s 750 mmHg 73%
23:00 +6°C° 0 mm 2 m/s 750 mmHg 73%

Mâine, 4 Martie, Joi

Timp Temperatura Precipitaţii Vânt Presiune Umiditate
00:00 +6°C° 0 mm 2 m/s 749 mmHg 73%
01:00 +6°C° 0 mm 2 m/s 749 mmHg 73%
02:00 +6°C° 0 mm 2 m/s 749 mmHg 74%
03:00 +6°C° 0 mm 2 m/s 748 mmHg 75%
04:00 +5°C° 0 mm 3 m/s 747 mmHg 76%
05:00 +6°C° 0 mm 2 m/s 747 mmHg 77%
06:00 +5°C° 0 mm 2 m/s 747 mmHg 79%
07:00 +5°C° 0 mm 2 m/s 747 mmHg 81%
08:00 +7°C° 0 mm 3 m/s 746 mmHg 76%
09:00 +8°C° 0 mm 3 m/s 746 mmHg 71%
10:00 +10°C° 0 mm 3 m/s 746 mmHg 67%
11:00 +11°C° 0 mm 4 m/s 745 mmHg 63%
12:00 +12°C° 0 mm 4 m/s 745 mmHg 60%
13:00 +13°C° 0 mm 4 m/s 745 mmHg 57%
14:00 +12°C° 0.1 mm 4 m/s 744 mmHg 63%
15:00 +11°C° 0.1 mm 3 m/s 743 mmHg 69%
16:00 +10°C° 0.1 mm 3 m/s 743 mmHg 74%
17:00 +9°C° 0.4 mm 3 m/s 743 mmHg 78%
18:00 +8°C° 0.4 mm 3 m/s 743 mmHg 82%
19:00 +7°C° 0.4 mm 3 m/s 743 mmHg 86%
20:00 +7°C° 0.3 mm 3 m/s 743 mmHg 86%
21:00 +5°C° 0.3 mm 3 m/s 743 mmHg 86%
22:00 +4°C° 0.3 mm 3 m/s 743 mmHg 87%
23:00 +3°C° 1 mm 3 m/s 743 mmHg 88%

Poimâine, 5 Martie, Vineri

Timp Temperatura Precipitaţii Vânt Presiune Umiditate
00:00 +2°C° 1 mm 3 m/s 743 mmHg 89%
01:00 +1°C° 1 mm 3 m/s 743 mmHg 91%
02:00 +1°C° 0.4 mm 3 m/s 743 mmHg 92%
03:00 +1°C° 0.4 mm 3 m/s 744 mmHg 94%
04:00 +1°C° 0.4 mm 3 m/s 744 mmHg 95%
05:00 -1°C° 0.3 mm 4 m/s 744 mmHg 93%
06:00 -1°C° 0.3 mm 4 m/s 745 mmHg 91%
07:00 -2°C° 0.3 mm 5 m/s 746 mmHg 89%
08:00 -2°C° 0.2 mm 4 m/s 746 mmHg 83%
09:00 -1°C° 0.2 mm 4 m/s 747 mmHg 76%
10:00 -1°C° 0.2 mm 4 m/s 747 mmHg 70%
11:00 0°C° 0 mm 4 m/s 747 mmHg 64%
12:00 0°C° 0 mm 4 m/s 748 mmHg 59%
13:00 +1°C° 0 mm 4 m/s 748 mmHg 54%
14:00 +1°C° 0 mm 4 m/s 748 mmHg 53%
15:00 +1°C° 0 mm 4 m/s 749 mmHg 52%
16:00 +1°C° 0 mm 4 m/s 749 mmHg 51%
17:00 +1°C° 0 mm 3 m/s 749 mmHg 57%
18:00 0°C° 0 mm 3 m/s 750 mmHg 62%
19:00 -1°C° 0 mm 2 m/s 751 mmHg 68%
20:00 -1°C° 0 mm 2 m/s 751 mmHg 69%
21:00 -1°C° 0 mm 2 m/s 752 mmHg 71%
22:00 -2°C° 0 mm 2 m/s 752 mmHg 72%
23:00 -2°C° 0 mm 3 m/s 752 mmHg 73%

6 Martie, Sâmbătă

Timp Temperatura Precipitaţii Vânt Presiune Umiditate
00:00 -2°C° 0 mm 3 m/s 753 mmHg 74%
01:00 -2°C° 0 mm 3 m/s 753 mmHg 75%
02:00 -4°C° 0 mm 3 m/s 754 mmHg 76%
03:00 -4°C° 0 mm 3 m/s 754 mmHg 77%
04:00 -4°C° 0 mm 3 m/s 754 mmHg 78%
05:00 -4°C° 0 mm 3 m/s 755 mmHg 79%
06:00 -4°C° 0 mm 3 m/s 755 mmHg 80%
07:00 -4°C° 0 mm 3 m/s 756 mmHg 81%
08:00 -2°C° 0 mm 3 m/s 756 mmHg 75%
09:00 -2°C° 0 mm 3 m/s 756 mmHg 69%
10:00 -1°C° 0 mm 3 m/s 757 mmHg 63%
11:00 0°C° 0 mm 3 m/s 757 mmHg 56%
12:00 +1°C° 0 mm 3 m/s 757 mmHg 49%
13:00 +2°C° 0 mm 3 m/s 757 mmHg 41%
14:00 +2°C° 0 mm 3 m/s 756 mmHg 42%
15:00 +2°C° 0 mm 2 m/s 756 mmHg 43%
16:00 +2°C° 0 mm 2 m/s 756 mmHg 44%
17:00 +1°C° 0 mm 2 m/s 756 mmHg 50%
18:00 -1°C° 0 mm 2 m/s 756 mmHg 55%
19:00 0°C° 0 mm 1 m/s 756 mmHg 60%
20:00 -2°C° 0 mm 2 m/s 756 mmHg 61%
21:00 -2°C° 0 mm 2 m/s 756 mmHg 61%
22:00 -2°C° 0 mm 2 m/s 756 mmHg 61%
23:00 -2°C° 0 mm 2 m/s 755 mmHg 61%

7 Martie, Duminică

Timp Temperatura Precipitaţii Vânt Presiune Umiditate
00:00 -2°C° 0 mm 2 m/s 755 mmHg 61%
01:00 -2°C° 0 mm 3 m/s 755 mmHg 61%
02:00 -2°C° 0 mm 3 m/s 754 mmHg 61%
03:00 -4°C° 0 mm 3 m/s 754 mmHg 60%
04:00 -4°C° 0 mm 3 m/s 753 mmHg 60%
05:00 -4°C° 0 mm 3 m/s 753 mmHg 59%
06:00 -2°C° 0 mm 3 m/s 753 mmHg 57%
07:00 -2°C° 0 mm 3 m/s 752 mmHg 56%
08:00 -1°C° 0 mm 3 m/s 752 mmHg 50%
09:00 +1°C° 0 mm 3 m/s 752 mmHg 44%
10:00 +3°C° 0 mm 3 m/s 752 mmHg 38%
11:00 +3°C° 0 mm 3 m/s 751 mmHg 37%
12:00 +4°C° 0 mm 3 m/s 751 mmHg 37%
13:00 +5°C° 0 mm 4 m/s 750 mmHg 36%
14:00 +5°C° 0 mm 3 m/s 749 mmHg 39%
15:00 +5°C° 0 mm 3 m/s 749 mmHg 42%
16:00 +4°C° 0 mm 3 m/s 748 mmHg 45%
17:00 +4°C° 0 mm 2 m/s 748 mmHg 49%
18:00 +2°C° 0 mm 2 m/s 748 mmHg 54%
19:00 -1°C° 0 mm 2 m/s 748 mmHg 59%
20:00 -1°C° 0 mm 2 m/s 748 mmHg 60%
21:00 -1°C° 0 mm 2 m/s 748 mmHg 61%
22:00 -1°C° 0 mm 2 m/s 748 mmHg 62%
23:00 -2°C° 0 mm 2 m/s 747 mmHg 62%

8 Martie, Luni

Timp Temperatura Precipitaţii Vânt Presiune Umiditate
00:00 -2°C° 0 mm 2 m/s 747 mmHg 62%
01:00 0°C° 0 mm 1 m/s 747 mmHg 62%
02:00 0°C° 0 mm 1 m/s 746 mmHg 62%
03:00 0°C° 0 mm 1 m/s 746 mmHg 62%
04:00 0°C° 0 mm 1 m/s 746 mmHg 62%
05:00 -2°C° 0 mm 2 m/s 746 mmHg 63%
06:00 -2°C° 0 mm 2 m/s 746 mmHg 64%
07:00 -2°C° 0 mm 2 m/s 746 mmHg 65%
08:00 -1°C° 0 mm 3 m/s 746 mmHg 65%
09:00 0°C° 0 mm 3 m/s 746 mmHg 65%
10:00 0°C° 0 mm 4 m/s 746 mmHg 65%
11:00 +1°C° 0 mm 4 m/s 746 mmHg 64%
12:00 +1°C° 0 mm 4 m/s 746 mmHg 64%
13:00 +3°C° 0 mm 3 m/s 746 mmHg 63%
14:00 +2°C° 0.1 mm 3 m/s 746 mmHg 70%
15:00 +2°C° 0.1 mm 3 m/s 746 mmHg 77%
16:00 +1°C° 0.1 mm 3 m/s 746 mmHg 84%
17:00 +1°C° 0.1 mm 2 m/s 746 mmHg 88%
18:00 +1°C° 0.1 mm 2 m/s 747 mmHg 91%
19:00 -1°C° 0.1 mm 2 m/s 747 mmHg 94%
20:00 -1°C° 0.1 mm 2 m/s 748 mmHg 90%
21:00 -2°C° 0.1 mm 2 m/s 748 mmHg 85%
22:00 -2°C° 0.1 mm 2 m/s 749 mmHg 80%
23:00 -3°C° 0 mm 2 m/s 749 mmHg 79%
Arată mai mult

Formular de consimțământ

Meteoprog și furnizorii noștri de servicii pot stoca și accesa date personale, precum cookies, identificatori de dispozitiv sau alte tehnologii similare pe dispozitivul dumneavoastră și procesa astfel de date pentru a personaliza conținutul și reclamele, dar și pentru a oferi caracteristici de social media și pentru a analiza traficul.

  • Stocarea și/sau accesarea informațiilor pe dispozitivul dumneavoastră

    Cookies, identificatori de dispozitiv sau alte informații pot fi stocate sau accesate pe dispozitiv în scopurile indicate mai sus.

  • Reclame și conținut personalizat, evaluarea reclamelor și a conținutului, informații despre audiențe și dezvoltarea produselor

    Reclamele și conținutul pot fi personalizate pe baza unui profil. Pot fi adăugate date suplimentare pentru a personaliza mai bine reclamele și conținutul. Performanța reclamelor și conținutului poate fi măsurată. Pot fi obținute informații despre utilizatorii care au văzut reclamele și conținutul. Aceste date pot fi utilizate pentru a dezvolta sau îmbunătăți experiența utilizatorilor, sistemele și software-ul.

Dând clic pe ‘Sunt de acord’, permiteți utilizarea cookie-urilor menționate, a identificatorilor de dispozitiv, balizelor web sau altor tehnologii similare. Setările pot fi modificate din browser-ul dispozitivului dumneavoastră.

În anumite scopuri, interesele legitime pot prima asupra consimțământului. Puteți citi mai multe informații în acest sens în Politica privind Confidențialitatea Datelor și Cookie.